Weather in Zon

Russia / Udmurt Republic     57°10′45″N   51°21′30″E
temp.,
°C
wind,
m/s
gust,
m/s
humid.,
%
clouds,
%
prec.,
mm/h
press.,
hPa
HPBL,
m
21 april, wed
wed2101:000se27662 0.0 1030109
04:00−1ese3967100 0.0 1030150
07:00+3se41253100 0.0 1029418
10:00+8se61338100 0.0 10281028
13:00+10sse61233100 0.0 10261212
16:00+9sse51340100 0.1 10261285
19:00+8s61341100 0.0 10251219
22:00+4sse61582100 0.7 10241004
22 april, thu
thu2201:00+3sse61496100 3.6 1023976
04:00+3sse51397100 4.1 1023838
07:00+3s51296100 0.1 1023853
10:00+4s41093100 0.1 1024624
13:00+7s488499 0.0 1025708
16:00+10s4774100 0.1 10241093
19:00+8sse41081100 0.0 1025777
22:00+6sse4118692 0.0 1025535
23 april, fri
fri2301:00+5sse4992100 0.0 1026463
04:00+4sse399399 0.1 1026391
07:00+4sse3794100 0.1 1026374
10:00+5sse379296 0.3 1027412
13:00+8s357699 0.0 1027723
16:00+10sse247179 0.0 1026839
19:00+9se3674100 0.0 1026290
22:00+6ese3786100 0.0 1026262
24 april, sat
sat2401:00+5e3689100 0.0 1024336
04:00+4ene2891100 0.0 1022266
07:00+4ene3889100 0.0 1021303
10:00+8e3673100 0.0 1018709
13:00+8se3480100 0.0 1017746
16:00+6ese2694100 0.6 1016356
19:00+6ese2697100 0.4 1014354
22:00+6ese2698100 0.6 1013307
25 april, sun
sun2501:00+5se2698100 0.1 1011267
04:00+5se279695 0.1 1010261
07:00+6se389337 0.0 1008389
10:00+6s5894100 3.4 1006956
13:00+7wsw51074100 3.8 10091495
16:00+8sw496615 4.1 10101374
19:00+7sw226885 0.4 101042
22:00+4ssw2381100 0.5 101141